Regional Weather Roundup
Issued by NWS Sioux Falls, SD

Home | Current Version | Previous Version | Text Only | Print | Product List | Glossary On
Versions: 1 2 3 4 5 6 7 8 9 10 11 12 13 14 15 16 17 18 19 20 21 22 23 24 25 26 27 28 29 30 31 32 33 34 35 36 37 38 39 40 41 42 43 44 45 46 47 48 49 50
000
ASUS43 KFSD 060702
RWRFSD

WEATHER ROUNDUP FOR SE SOUTH DAKOTA/SW MINNESOTA/NW IOWA
NATIONAL WEATHER SERVICE SIOUX FALLS SD
200 AM CDT MON JUL 06 2015

NOTE: "FAIR" INDICATES FEW OR NO CLOUDS BELOW 12,000 FEET WITH NO
SIGNIFICANT WEATHER AND OR OBSTRUCTIONS TO VISIBILITY.


SDZ038>040-050-052>070-060800-
SOUTHEAST SOUTH DAKOTA

CITY           SKY/WX    TMP DP  RH WIND       PRES   REMARKS
BROOKINGS      CLOUDY    70  64  83 N9G16     29.85S
CHAMBERLAIN    NOT AVBL
HURON          RAIN      68  66  93 N14       29.88R FOG
MADISON        LGT RAIN  68  68 100 NW8       29.86R
MITCHELL       CLOUDY    70  69  97 NW7       29.88S THUNDER FOG
SIOUX FALLS    HVY RAIN  72  69  90 N8G20     29.82R FOG
WINNER         LGT RAIN  68  64  87 N9        29.93F
YANKTON        CLOUDY    70  66  88 NW16      29.82R
$$

MNZ071-072-080-081-089-090-097-098-060800-
SOUTHWEST MINNESOTA

CITY           SKY/WX    TMP DP  RH WIND       PRES   REMARKS
FAIRMONT       CLOUDY    73  64  73 S15       29.76F
JACKSON        CLOUDY    77  70  78 S13       29.76F
MARSHALL       CLOUDY    70  64  83 NW13      29.77F
PIPESTONE      TSTM      68  66  94 NE13      29.82S
REDWOOD FALLS  TSTM      70  69  97 N5        29.80R FOG
WINDOM         LGT RAIN  73  68  83 NW13G18   29.79R
WORTHINGTON    CLOUDY    70  64  83 N8        29.82R
$$

IAZ001>003-012>014-020>022-031-032-NEZ013-014-SDZ071-060800-
NORTHWEST IOWA

CITY           SKY/WX    TMP DP  RH WIND       PRES   REMARKS
DENISON        RAIN      77  75  94 S9        29.82R
ESTHERVILLE    CLOUDY    75  69  81 S13G23    29.76F
SIOUX CITY     LGT RAIN  81  69  67 S20G28    29.76R
SPENCER        CLOUDY    77  70  79 S18G25    29.76F THUNDER
$$

ABBREVIATIONS USED IN REMARKS
   TC - TEMPERATURE IN CELSIUS
  WCI - WIND CHILL INDEX
   HX - HEAT INDEX
  VSB - VISIBILITY




USA.gov is the U.S. government's official web portal to all federal, state and local government web resources and services.